Regional Weather Roundup
Issued by NWS

Home | Current Version | Previous Version | Graphics & Text | Print | Product List | Glossary On
Versions: 1 2 3 4 5 6 7 8 9 10 11 12 13 14 15 16 17 18 19 20 21 22 23 24 25 26 27 28 29 30 31 32 33 34 35 36 37 38 39 40 41 42 43 44 45 46 47 48 49 50
000
ASUS43 KLMK 192202
RWRKY
KENTUCKY REGIONAL WEATHER ROUNDUP
NATIONAL WEATHER SERVICE LOUISVILLE KY
500 PM EST FRI DEC 19 2014

NOTE "FAIR" INDICATES FEW OR NO CLOUDS BELOW 12,000 FEET
WITH NO SIGNIFICANT WEATHER AND/OR OBSTRUCTIONS TO VISIBILITY.

KYZ001>023-026-027-061>063-070>075-192300-
WESTERN AND SOUTH CENTRAL KENTUCKY

CITY           SKY/WX    TMP DP  RH WIND       PRES   REMARKS
PADUCAH        CLOUDY    40  30  67 N3        30.25S
HENDERSON      MOCLDY    36  25  64 N6        30.27F WCI  31
OWENSBORO      PTCLDY    38  26  62 N8        30.28F WCI  32
HOPKINSVILLE   PTCLDY    39  29  68 CALM      30.25R
BOWLING GREEN  PTCLDY    40  25  55 N5        30.25F
GLASGOW        NOT AVBL
$$

KYZ024-025-028>034-038-045-046-053-192300-
NORTH CENTRAL KENTUCKY

CITY           SKY/WX    TMP DP  RH WIND       PRES   REMARKS
LOUISVILLE/SDF MOCLDY    34  21  59 N6        30.29R WCI  29
LOUISVILLE/LOU PTCLDY    33  22  63 NW6       30.31R WCI  28
FORT KNOX      PTCLDY    34  24  68 N5        30.25S WCI  30
$$

KYZ035>037-039>044-047>052-055>060-089>105-192300-
NORTHEAST KENTUCKY

CITY           SKY/WX    TMP DP  RH WIND       PRES   REMARKS
LEXINGTON      PTCLDY    29  22  75 N6        30.27R WCI  23
COVINGTON      CLOUDY    30  18  60 CALM      30.29R
FRANKFORT      PTCLDY    32  21  64 CALM      30.27R
$$

KYZ054-064>069-076>088-106>120-192300-
SOUTHEAST KENTUCKY

CITY           SKY/WX    TMP DP  RH WIND       PRES   REMARKS
JACKSON        MOCLDY    35  22  58 CALM      30.21R
LONDON         CLOUDY    38  25  59 N5        30.22R WCI  34
SOMERSET       NOT AVBL
MIDDLESBORO    NOT AVBL
MONTICELLO     CLOUDY    37  28  70 N5        30.25S WCI  33
$$



USA.gov is the U.S. government's official web portal to all federal, state and local government web resources and services.